Year,Month,Day,Hour,Minute,Value (Times are PST for temperature in C)
2002,03,17,00,00,0.60
2002,03,17,00,01,0.60
2002,03,17,00,02,0.60
2002,03,17,00,03,0.60
2002,03,17,00,04,0.60
2002,03,17,00,05,0.50
2002,03,17,00,06,0.50
2002,03,17,00,07,0.50
2002,03,17,00,08,0.40
2002,03,17,00,09,0.40
2002,03,17,00,10,0.40
2002,03,17,00,11,0.40
2002,03,17,00,12,0.50
2002,03,17,00,13,0.50
2002,03,17,00,14,0.40
2002,03,17,00,15,0.40
2002,03,17,00,16,0.40
2002,03,17,00,17,0.40
2002,03,17,00,18,0.50
2002,03,17,00,19,0.40
2002,03,17,00,20,0.40
2002,03,17,00,21,0.40
2002,03,17,00,22,0.40
2002,03,17,00,23,0.40
2002,03,17,00,24,0.40
2002,03,17,00,25,0.40
2002,03,17,00,26,0.40
2002,03,17,00,27,0.40
2002,03,17,00,28,0.40
2002,03,17,00,29,0.40
2002,03,17,00,30,0.40
2002,03,17,00,31,0.40
2002,03,17,00,32,0.40
2002,03,17,00,33,0.40
2002,03,17,00,34,0.40
2002,03,17,00,35,0.40
2002,03,17,00,36,0.40
2002,03,17,00,37,0.40
2002,03,17,00,38,0.40
2002,03,17,00,39,0.40
2002,03,17,00,40,0.40
2002,03,17,00,41,0.40
2002,03,17,00,42,0.40
2002,03,17,00,43,0.40
2002,03,17,00,44,0.40
2002,03,17,00,45,0.40
2002,03,17,00,46,0.40
2002,03,17,00,47,0.30
2002,03,17,00,48,0.30
2002,03,17,00,49,0.30
2002,03,17,00,50,0.30
2002,03,17,00,51,0.30
2002,03,17,00,52,0.30
2002,03,17,00,53,0.20
2002,03,17,00,54,0.20
2002,03,17,00,55,0.20
2002,03,17,00,56,0.20
2002,03,17,00,57,0.20
2002,03,17,00,58,0.20
2002,03,17,00,59,0.20
2002,03,17,01,00,0.20
2002,03,17,01,01,0.20
2002,03,17,01,02,0.20
2002,03,17,01,03,0.20
2002,03,17,01,04,0.20
2002,03,17,01,05,0.20
2002,03,17,01,06,0.30
2002,03,17,01,07,0.30
2002,03,17,01,08,0.20
2002,03,17,01,09,0.20
2002,03,17,01,10,0.20
2002,03,17,01,11,0.20
2002,03,17,01,12,0.20
2002,03,17,01,13,0.20
2002,03,17,01,14,0.20
2002,03,17,01,15,0.20
2002,03,17,01,16,0.20
2002,03,17,01,17,0.20
2002,03,17,01,18,0.30
2002,03,17,01,19,0.30
2002,03,17,01,20,0.30
2002,03,17,01,21,0.30
2002,03,17,01,22,0.30
2002,03,17,01,23,0.30
2002,03,17,01,24,0.30
2002,03,17,01,25,0.30
2002,03,17,01,26,0.30
2002,03,17,01,27,0.30
2002,03,17,01,28,0.30
2002,03,17,01,29,0.30
2002,03,17,01,30,0.30
2002,03,17,01,31,0.30
2002,03,17,01,32,0.30
2002,03,17,01,33,0.30
2002,03,17,01,34,0.30
2002,03,17,01,35,0.30
2002,03,17,01,36,0.40
2002,03,17,01,37,0.40
2002,03,17,01,38,0.40
2002,03,17,01,39,0.40
2002,03,17,01,40,0.40
2002,03,17,01,41,0.40
2002,03,17,01,42,0.40
2002,03,17,01,43,0.40
2002,03,17,01,44,0.40
2002,03,17,01,45,0.40
2002,03,17,01,46,0.40
2002,03,17,01,47,0.40
2002,03,17,01,48,0.40
2002,03,17,01,49,0.40
2002,03,17,01,50,0.40
2002,03,17,01,51,0.40
2002,03,17,01,52,0.40
2002,03,17,01,53,0.40
2002,03,17,01,54,0.40
2002,03,17,01,55,0.40
2002,03,17,01,56,0.30
2002,03,17,01,57,0.30
2002,03,17,01,58,0.30
2002,03,17,01,59,0.30
2002,03,17,02,00,0.30
2002,03,17,02,01,0.30
2002,03,17,02,02,0.30
2002,03,17,02,03,0.30
2002,03,17,02,04,0.30
2002,03,17,02,05,0.40
2002,03,17,02,06,0.40
2002,03,17,02,07,0.40
2002,03,17,02,08,0.40
2002,03,17,02,09,0.40
2002,03,17,02,10,0.40
2002,03,17,02,11,0.40
2002,03,17,02,12,0.40
2002,03,17,02,13,0.40
2002,03,17,02,14,0.40
2002,03,17,02,15,0.30
2002,03,17,02,16,0.30
2002,03,17,02,17,0.30
2002,03,17,02,18,0.30
2002,03,17,02,19,0.30
2002,03,17,02,20,0.40
2002,03,17,02,21,0.40
2002,03,17,02,22,0.40
2002,03,17,02,23,0.40
2002,03,17,02,24,0.40
2002,03,17,02,25,0.40
2002,03,17,02,26,0.40
2002,03,17,02,27,0.40
2002,03,17,02,28,0.40
2002,03,17,02,29,0.40
2002,03,17,02,30,0.40
2002,03,17,02,31,0.40
2002,03,17,02,32,0.40
2002,03,17,02,33,0.30
2002,03,17,02,34,0.30
2002,03,17,02,35,0.30
2002,03,17,02,36,0.30
2002,03,17,02,37,0.30
2002,03,17,02,38,0.30
2002,03,17,02,39,0.30
2002,03,17,02,40,0.30
2002,03,17,02,41,0.30
2002,03,17,02,42,0.40
2002,03,17,02,43,0.40
2002,03,17,02,44,0.40
2002,03,17,02,45,0.40
2002,03,17,02,46,0.40
2002,03,17,02,47,0.40
2002,03,17,02,48,0.40
2002,03,17,02,49,0.40
2002,03,17,02,50,0.30
2002,03,17,02,51,0.30
2002,03,17,02,52,0.30
2002,03,17,02,53,0.30
2002,03,17,02,54,0.30
2002,03,17,02,55,0.30
2002,03,17,02,56,0.30
2002,03,17,02,57,0.30
2002,03,17,02,58,0.30
2002,03,17,02,59,0.30
2002,03,17,03,00,0.30
2002,03,17,03,01,0.30
2002,03,17,03,02,0.30
2002,03,17,03,03,0.30
2002,03,17,03,04,0.30
2002,03,17,03,05,0.20
2002,03,17,03,06,0.20
2002,03,17,03,07,0.20
2002,03,17,03,08,0.20
2002,03,17,03,09,0.10
2002,03,17,03,10,0.10
2002,03,17,03,11,0.10
2002,03,17,03,12,0.10
2002,03,17,03,13,0.10
2002,03,17,03,14,0.10
2002,03,17,03,15,0.10
2002,03,17,03,16,0.10
2002,03,17,03,17,0.10
2002,03,17,03,18,0.20
2002,03,17,03,19,0.20
2002,03,17,03,20,0.20
2002,03,17,03,21,0.20
2002,03,17,03,22,0.20
2002,03,17,03,23,0.20
2002,03,17,03,24,0.20
2002,03,17,03,25,0.20
2002,03,17,03,26,0.20
2002,03,17,03,27,0.20
2002,03,17,03,28,0.20
2002,03,17,03,29,0.20
2002,03,17,03,30,0.20
2002,03,17,03,31,0.20
2002,03,17,03,32,0.20
2002,03,17,03,33,0.20
2002,03,17,03,34,0.20
2002,03,17,03,35,0.20
2002,03,17,03,36,0.20
2002,03,17,03,37,0.20
2002,03,17,03,38,0.20
2002,03,17,03,39,0.20
2002,03,17,03,40,0.20
2002,03,17,03,41,0.20
2002,03,17,03,42,0.20
2002,03,17,03,43,0.20
2002,03,17,03,44,0.20
2002,03,17,03,45,0.20
2002,03,17,03,46,0.20
2002,03,17,03,47,0.20
2002,03,17,03,48,0.20
2002,03,17,03,49,0.20
2002,03,17,03,50,0.20
2002,03,17,03,51,0.10
2002,03,17,03,52,0.10
2002,03,17,03,53,0.20
2002,03,17,03,54,0.20
2002,03,17,03,55,0.20
2002,03,17,03,56,0.20
2002,03,17,03,57,0.20
2002,03,17,03,58,0.20
2002,03,17,03,59,0.20
2002,03,17,04,00,0.30
2002,03,17,04,01,0.30
2002,03,17,04,02,0.30
2002,03,17,04,03,0.30
2002,03,17,04,04,0.30
2002,03,17,04,05,0.30
2002,03,17,04,06,0.30
2002,03,17,04,07,0.30
2002,03,17,04,08,0.30
2002,03,17,04,09,0.30
2002,03,17,04,10,0.30
2002,03,17,04,11,0.30
2002,03,17,04,12,0.30
2002,03,17,04,13,0.30
2002,03,17,04,14,0.30
2002,03,17,04,15,0.30
2002,03,17,04,16,0.30
2002,03,17,04,17,0.30
2002,03,17,04,18,0.30
2002,03,17,04,19,0.30
2002,03,17,04,20,0.30
2002,03,17,04,21,0.30
2002,03,17,04,22,0.30
2002,03,17,04,23,0.30
2002,03,17,04,24,0.30
2002,03,17,04,25,0.30
2002,03,17,04,26,0.30
2002,03,17,04,27,0.30
2002,03,17,04,28,0.30
2002,03,17,04,29,0.30
2002,03,17,04,30,0.30
2002,03,17,04,31,0.30
2002,03,17,04,32,0.30
2002,03,17,04,33,0.30
2002,03,17,04,34,0.30
2002,03,17,04,35,0.30
2002,03,17,04,36,0.30
2002,03,17,04,37,0.30
2002,03,17,04,38,0.30
2002,03,17,04,39,0.30
2002,03,17,04,40,0.30
2002,03,17,04,41,0.30
2002,03,17,04,42,0.30
2002,03,17,04,43,0.30
2002,03,17,04,44,0.40
2002,03,17,04,45,0.40
2002,03,17,04,46,0.30
2002,03,17,04,47,0.30
2002,03,17,04,48,0.30
2002,03,17,04,49,0.30
2002,03,17,04,50,0.30
2002,03,17,04,51,0.30
2002,03,17,04,52,0.30
2002,03,17,04,53,0.30
2002,03,17,04,54,0.30
2002,03,17,04,55,0.30
2002,03,17,04,56,0.30
2002,03,17,04,57,0.30
2002,03,17,04,58,0.30
2002,03,17,04,59,0.30
2002,03,17,05,00,0.30
2002,03,17,05,01,0.30
2002,03,17,05,02,0.30
2002,03,17,05,03,0.30
2002,03,17,05,04,0.30
2002,03,17,05,05,0.30
2002,03,17,05,06,0.30
2002,03,17,05,07,0.30
2002,03,17,05,08,0.30
2002,03,17,05,09,0.30
2002,03,17,05,10,0.30
2002,03,17,05,11,0.30
2002,03,17,05,12,0.30
2002,03,17,05,13,0.30
2002,03,17,05,14,0.20
2002,03,17,05,15,0.20
2002,03,17,05,16,0.20
2002,03,17,05,17,0.20
2002,03,17,05,18,0.20
2002,03,17,05,19,0.20
2002,03,17,05,20,0.20
2002,03,17,05,21,0.20
2002,03,17,05,22,0.20
2002,03,17,05,23,0.20
2002,03,17,05,24,0.30
2002,03,17,05,25,0.30
2002,03,17,05,26,0.30
2002,03,17,05,27,0.30
2002,03,17,05,28,0.20
2002,03,17,05,29,0.20
2002,03,17,05,30,0.20
2002,03,17,05,31,0.20
2002,03,17,05,32,0.20
2002,03,17,05,33,0.20
2002,03,17,05,34,0.20
2002,03,17,05,35,0.20
2002,03,17,05,36,0.20
2002,03,17,05,37,0.20
2002,03,17,05,38,0.20
2002,03,17,05,39,0.20
2002,03,17,05,40,0.20
2002,03,17,05,41,0.20
2002,03,17,05,42,0.20
2002,03,17,05,43,0.20
2002,03,17,05,44,0.20
2002,03,17,05,45,0.20
2002,03,17,05,46,0.20
2002,03,17,05,47,0.20
2002,03,17,05,48,0.20
2002,03,17,05,49,0.20
2002,03,17,05,50,0.20
2002,03,17,05,51,0.20
2002,03,17,05,52,0.20
2002,03,17,05,53,0.20
2002,03,17,05,54,0.20
2002,03,17,05,55,0.20
2002,03,17,05,56,0.20
2002,03,17,05,57,0.20
2002,03,17,05,58,0.20
2002,03,17,05,59,0.20
2002,03,17,06,00,0.10
2002,03,17,06,01,0.10
2002,03,17,06,02,0.10
2002,03,17,06,03,0.20
2002,03,17,06,04,0.20
2002,03,17,06,05,0.20
2002,03,17,06,06,0.20
2002,03,17,06,07,0.10
2002,03,17,06,08,0.10
2002,03,17,06,09,0.10
2002,03,17,06,10,0.10
2002,03,17,06,11,0.10
2002,03,17,06,12,0.10
2002,03,17,06,13,0.10
2002,03,17,06,14,0.10
2002,03,17,06,15,0.10
2002,03,17,06,16,0.10
2002,03,17,06,17,0.10
2002,03,17,06,18,0.10
2002,03,17,06,19,0.10
2002,03,17,06,20,0.10
2002,03,17,06,21,0.10
2002,03,17,06,22,0.10
2002,03,17,06,23,0.10
2002,03,17,06,24,0.10
2002,03,17,06,25,0.10
2002,03,17,06,26,0.10
2002,03,17,06,27,0.10
2002,03,17,06,28,0.10
2002,03,17,06,29,0.10
2002,03,17,06,30,0.10
2002,03,17,06,31,0.10
2002,03,17,06,32,0.10
2002,03,17,06,33,0.10
2002,03,17,06,34,0.10
2002,03,17,06,35,0.10
2002,03,17,06,36,0.10
2002,03,17,06,37,0.10
2002,03,17,06,38,0.10
2002,03,17,06,39,0.10
2002,03,17,06,40,0.10
2002,03,17,06,41,0.10
2002,03,17,06,42,0.10
2002,03,17,06,43,0.10
2002,03,17,06,44,0.20
2002,03,17,06,45,0.20
2002,03,17,06,46,0.20
2002,03,17,06,47,0.20
2002,03,17,06,48,0.20
2002,03,17,06,49,0.20
2002,03,17,06,50,0.20
2002,03,17,06,51,0.20
2002,03,17,06,52,0.20
2002,03,17,06,53,0.20
2002,03,17,06,54,0.20
2002,03,17,06,55,0.20
2002,03,17,06,56,0.20
2002,03,17,06,57,0.20
2002,03,17,06,58,0.20
2002,03,17,06,59,0.20
2002,03,17,07,00,0.30
2002,03,17,07,01,0.30
2002,03,17,07,02,0.30
2002,03,17,07,03,0.30
2002,03,17,07,04,0.30
2002,03,17,07,05,0.30
2002,03,17,07,06,0.40
2002,03,17,07,07,0.40
2002,03,17,07,08,0.40
2002,03,17,07,09,0.40
2002,03,17,07,10,0.40
2002,03,17,07,11,0.40
2002,03,17,07,12,0.40
2002,03,17,07,13,0.40
2002,03,17,07,14,0.50
2002,03,17,07,15,0.50
2002,03,17,07,16,0.50
2002,03,17,07,17,0.50
2002,03,17,07,18,0.50
2002,03,17,07,19,0.50
2002,03,17,07,20,0.50
2002,03,17,07,21,0.50
2002,03,17,07,22,0.40
2002,03,17,07,23,0.50
2002,03,17,07,24,0.50
2002,03,17,07,25,0.50
2002,03,17,07,26,0.50
2002,03,17,07,27,0.50
2002,03,17,07,28,0.50
2002,03,17,07,29,0.50
2002,03,17,07,30,0.50
2002,03,17,07,31,0.60
2002,03,17,07,32,0.60
2002,03,17,07,33,0.60
2002,03,17,07,34,0.60
2002,03,17,07,35,0.60
2002,03,17,07,36,0.60
2002,03,17,07,37,0.70
2002,03,17,07,38,0.70
2002,03,17,07,39,0.70
2002,03,17,07,40,0.80
2002,03,17,07,41,0.80
2002,03,17,07,42,0.80
2002,03,17,07,43,0.80
2002,03,17,07,44,0.80
2002,03,17,07,45,0.80
2002,03,17,07,46,0.80
2002,03,17,07,47,0.80
2002,03,17,07,48,0.80
2002,03,17,07,49,0.80
2002,03,17,07,50,0.90
2002,03,17,07,51,0.90
2002,03,17,07,52,1.00
2002,03,17,07,53,1.00
2002,03,17,07,54,1.00
2002,03,17,07,55,1.00
2002,03,17,07,56,1.00
2002,03,17,07,57,1.00
2002,03,17,07,58,1.00
2002,03,17,07,59,1.00
2002,03,17,08,00,1.00
2002,03,17,08,01,1.00
2002,03,17,08,02,1.00
2002,03,17,08,03,1.00
2002,03,17,08,04,0.90
2002,03,17,08,05,0.90
2002,03,17,08,06,1.00
2002,03,17,08,07,1.00
2002,03,17,08,08,1.00
2002,03,17,08,09,1.00
2002,03,17,08,10,1.00
2002,03,17,08,11,1.00
2002,03,17,08,12,0.90
2002,03,17,08,13,0.90
2002,03,17,08,14,1.00
2002,03,17,08,15,1.00
2002,03,17,08,16,1.10
2002,03,17,08,17,1.10
2002,03,17,08,18,1.20
2002,03,17,08,19,1.20
2002,03,17,08,20,1.20
2002,03,17,08,21,1.10
2002,03,17,08,22,1.00
2002,03,17,08,23,1.00
2002,03,17,08,24,1.00
2002,03,17,08,25,1.00
2002,03,17,08,26,1.00
2002,03,17,08,27,1.10
2002,03,17,08,28,1.10
2002,03,17,08,29,1.00
2002,03,17,08,30,1.00
2002,03,17,08,31,1.10
2002,03,17,08,32,1.10
2002,03,17,08,33,1.10
2002,03,17,08,34,1.10
2002,03,17,08,35,1.10
2002,03,17,08,36,1.10
2002,03,17,08,37,1.10
2002,03,17,08,38,1.10
2002,03,17,08,39,1.10
2002,03,17,08,40,1.10
2002,03,17,08,41,1.10
2002,03,17,08,42,1.10
2002,03,17,08,43,1.20
2002,03,17,08,44,1.20
2002,03,17,08,45,1.20
2002,03,17,08,46,1.20
2002,03,17,08,47,1.20
2002,03,17,08,48,1.20
2002,03,17,08,49,1.20
2002,03,17,08,50,1.20
2002,03,17,08,51,1.30
2002,03,17,08,52,1.40
2002,03,17,08,53,1.40
2002,03,17,08,54,1.40
2002,03,17,08,55,1.40
2002,03,17,08,56,1.50
2002,03,17,08,57,1.50
2002,03,17,08,58,1.60
2002,03,17,08,59,1.70
2002,03,17,09,00,1.70
2002,03,17,09,01,1.60
2002,03,17,09,02,1.60
2002,03,17,09,03,1.50
2002,03,17,09,04,1.50
2002,03,17,09,05,1.50
2002,03,17,09,06,1.60
2002,03,17,09,07,1.50
2002,03,17,09,08,1.40
2002,03,17,09,09,1.40
2002,03,17,09,10,1.40
2002,03,17,09,11,1.50
2002,03,17,09,12,1.50
2002,03,17,09,13,1.50
2002,03,17,09,14,1.50
2002,03,17,09,15,1.50
2002,03,17,09,16,1.50
2002,03,17,09,17,1.50
2002,03,17,09,18,1.50
2002,03,17,09,19,1.50
2002,03,17,09,20,1.50
2002,03,17,09,21,1.50
2002,03,17,09,22,1.50
2002,03,17,09,23,1.50
2002,03,17,09,24,1.50
2002,03,17,09,25,1.60
2002,03,17,09,26,1.80
2002,03,17,09,27,1.80
2002,03,17,09,28,1.80
2002,03,17,09,29,1.80
2002,03,17,09,30,1.80
2002,03,17,09,31,1.80
2002,03,17,09,32,1.80
2002,03,17,09,33,1.80
2002,03,17,09,34,1.80
2002,03,17,09,35,1.80
2002,03,17,09,36,1.80
2002,03,17,09,37,1.80
2002,03,17,09,38,1.80
2002,03,17,09,39,1.80
2002,03,17,09,40,1.80
2002,03,17,09,41,1.70
2002,03,17,09,42,1.80
2002,03,17,09,43,1.70
2002,03,17,09,44,1.80
2002,03,17,09,45,1.80
2002,03,17,09,46,1.70
2002,03,17,09,47,1.70
2002,03,17,09,48,1.60
2002,03,17,09,49,1.60
2002,03,17,09,50,1.60
2002,03,17,09,51,1.50
2002,03,17,09,52,1.50
2002,03,17,09,53,1.60
2002,03,17,09,54,1.60
2002,03,17,09,55,1.70
2002,03,17,09,56,1.80
2002,03,17,09,57,1.90
2002,03,17,09,58,1.90
2002,03,17,09,59,1.80
2002,03,17,10,00,1.80
2002,03,17,10,01,1.80
2002,03,17,10,02,1.90
2002,03,17,10,03,1.80
2002,03,17,10,04,1.80
2002,03,17,10,05,1.80
2002,03,17,10,06,1.80
2002,03,17,10,07,1.80
2002,03,17,10,08,1.90
2002,03,17,10,09,2.00
2002,03,17,10,10,2.10
2002,03,17,10,11,2.20
2002,03,17,10,12,2.10
2002,03,17,10,13,2.10
2002,03,17,10,14,2.10
2002,03,17,10,15,2.20
2002,03,17,10,16,2.20
2002,03,17,10,17,2.30
2002,03,17,10,18,2.30
2002,03,17,10,19,2.20
2002,03,17,10,20,2.20
2002,03,17,10,21,2.20
2002,03,17,10,22,2.20
2002,03,17,10,23,2.20
2002,03,17,10,24,2.00
2002,03,17,10,25,2.00
2002,03,17,10,26,2.10
2002,03,17,10,27,2.10
2002,03,17,10,28,2.20
2002,03,17,10,29,2.10
2002,03,17,10,30,2.20
2002,03,17,10,31,2.20
2002,03,17,10,32,2.20
2002,03,17,10,33,2.20
2002,03,17,10,34,2.20
2002,03,17,10,35,2.20
2002,03,17,10,36,2.20
2002,03,17,10,37,2.30
2002,03,17,10,38,2.20
2002,03,17,10,39,2.20
2002,03,17,10,40,2.20
2002,03,17,10,41,2.10
2002,03,17,10,42,2.10
2002,03,17,10,43,2.10
2002,03,17,10,44,2.10
2002,03,17,10,45,2.10
2002,03,17,10,46,2.10
2002,03,17,10,47,2.20
2002,03,17,10,48,2.30
2002,03,17,10,49,2.40
2002,03,17,10,50,2.50
2002,03,17,10,51,2.60
2002,03,17,10,52,2.60
2002,03,17,10,53,2.70
2002,03,17,10,54,2.70
2002,03,17,10,55,2.70
2002,03,17,10,56,2.70
2002,03,17,10,57,2.70
2002,03,17,10,58,2.70
2002,03,17,10,59,2.60
2002,03,17,11,00,2.60
2002,03,17,11,01,2.50
2002,03,17,11,02,2.50
2002,03,17,11,03,2.60
2002,03,17,11,04,2.60
2002,03,17,11,05,2.60
2002,03,17,11,06,2.60
2002,03,17,11,07,2.70
2002,03,17,11,08,2.70
2002,03,17,11,09,2.70
2002,03,17,11,10,2.70
2002,03,17,11,11,2.70
2002,03,17,11,12,2.70
2002,03,17,11,13,2.70
2002,03,17,11,14,2.70
2002,03,17,11,15,2.70
2002,03,17,11,16,2.70
2002,03,17,11,17,2.60
2002,03,17,11,18,2.60
2002,03,17,11,19,2.60
2002,03,17,11,20,2.50
2002,03,17,11,21,2.50
2002,03,17,11,22,2.60
2002,03,17,11,23,2.60
2002,03,17,11,24,2.60
2002,03,17,11,25,2.50
2002,03,17,11,26,2.60
2002,03,17,11,27,2.60
2002,03,17,11,28,2.60
2002,03,17,11,29,2.60
2002,03,17,11,30,2.70
2002,03,17,11,31,2.70
2002,03,17,11,32,2.50
2002,03,17,11,33,2.50
2002,03,17,11,34,2.60
2002,03,17,11,35,2.60
2002,03,17,11,36,2.60
2002,03,17,11,37,2.70
2002,03,17,11,38,2.70
2002,03,17,11,39,2.80
2002,03,17,11,40,2.90
2002,03,17,11,41,3.00
2002,03,17,11,42,3.10
2002,03,17,11,43,3.20
2002,03,17,11,44,3.10
2002,03,17,11,45,3.10
2002,03,17,11,46,2.90
2002,03,17,11,47,2.90
2002,03,17,11,48,2.80
2002,03,17,11,49,2.80
2002,03,17,11,50,2.90
2002,03,17,11,51,2.90
2002,03,17,11,52,2.90
2002,03,17,11,53,2.90
2002,03,17,11,54,2.90
2002,03,17,11,55,2.90
2002,03,17,11,56,2.90
2002,03,17,11,57,2.90
2002,03,17,11,58,2.90
2002,03,17,11,59,2.90
2002,03,17,12,00,3.00
2002,03,17,12,01,2.90
2002,03,17,12,02,3.00
2002,03,17,12,03,2.90
2002,03,17,12,04,3.00
2002,03,17,12,05,2.90
2002,03,17,12,06,2.80
2002,03,17,12,07,2.90
2002,03,17,12,08,2.80
2002,03,17,12,09,2.90
2002,03,17,12,10,3.00
2002,03,17,12,11,3.20
2002,03,17,12,12,3.20
2002,03,17,12,13,3.20
2002,03,17,12,14,3.10
2002,03,17,12,15,3.30
2002,03,17,12,16,3.30
2002,03,17,12,17,3.20
2002,03,17,12,18,3.30
2002,03,17,12,19,3.20
2002,03,17,12,20,3.10
2002,03,17,12,21,3.10
2002,03,17,12,22,3.10
2002,03,17,12,23,3.10
2002,03,17,12,24,3.10
2002,03,17,12,25,3.20
2002,03,17,12,26,3.10
2002,03,17,12,27,3.00
2002,03,17,12,28,2.90
2002,03,17,12,29,2.90
2002,03,17,12,30,2.90
2002,03,17,12,31,3.00
2002,03,17,12,32,3.20
2002,03,17,12,33,3.30
2002,03,17,12,34,3.20
2002,03,17,12,35,3.20
2002,03,17,12,36,3.20
2002,03,17,12,37,3.10
2002,03,17,12,38,3.20
2002,03,17,12,39,3.20
2002,03,17,12,40,3.20
2002,03,17,12,41,3.10
2002,03,17,12,42,3.10
2002,03,17,12,43,3.10
2002,03,17,12,44,3.10
2002,03,17,12,45,3.10
2002,03,17,12,46,3.10
2002,03,17,12,47,3.00
2002,03,17,12,48,3.10
2002,03,17,12,49,3.20
2002,03,17,12,50,3.30
2002,03,17,12,51,3.20
2002,03,17,12,52,3.10
2002,03,17,12,53,3.10
2002,03,17,12,54,3.20
2002,03,17,12,55,3.30
2002,03,17,12,56,3.30
2002,03,17,12,57,3.30
2002,03,17,12,58,3.30
2002,03,17,12,59,3.30
2002,03,17,13,00,3.50
2002,03,17,13,01,3.50
2002,03,17,13,02,3.40
2002,03,17,13,03,3.10
2002,03,17,13,04,3.00
2002,03,17,13,05,2.90
2002,03,17,13,06,3.00
2002,03,17,13,07,3.20
2002,03,17,13,08,3.20
2002,03,17,13,09,3.20
2002,03,17,13,10,3.10
2002,03,17,13,11,3.10
2002,03,17,13,12,3.10
2002,03,17,13,13,3.10
2002,03,17,13,14,3.20
2002,03,17,13,15,3.20
2002,03,17,13,16,3.10
2002,03,17,13,17,3.10
2002,03,17,13,18,3.00
2002,03,17,13,19,3.10
2002,03,17,13,20,3.10
2002,03,17,13,21,3.20
2002,03,17,13,22,3.30
2002,03,17,13,23,3.40
2002,03,17,13,24,3.40
2002,03,17,13,25,3.30
2002,03,17,13,26,3.20
2002,03,17,13,27,3.10
2002,03,17,13,28,3.10
2002,03,17,13,29,3.20
2002,03,17,13,30,3.30
2002,03,17,13,31,3.30
2002,03,17,13,32,3.50
2002,03,17,13,33,3.50
2002,03,17,13,34,3.50
2002,03,17,13,35,3.40
2002,03,17,13,36,3.40
2002,03,17,13,37,3.40
2002,03,17,13,38,3.40
2002,03,17,13,39,3.50
2002,03,17,13,40,3.60
2002,03,17,13,41,3.70
2002,03,17,13,42,3.70
2002,03,17,13,43,3.60
2002,03,17,13,44,3.70
2002,03,17,13,45,3.60
2002,03,17,13,46,3.50
2002,03,17,13,47,3.50
2002,03,17,13,48,3.50
2002,03,17,13,49,3.40
2002,03,17,13,50,3.50
2002,03,17,13,51,3.60
2002,03,17,13,52,3.70
2002,03,17,13,53,3.70
2002,03,17,13,54,3.70
2002,03,17,13,55,3.50
2002,03,17,13,56,3.40
2002,03,17,13,57,3.20
2002,03,17,13,58,3.20
2002,03,17,13,59,3.20
2002,03,17,14,00,3.20
2002,03,17,14,01,3.30
2002,03,17,14,02,3.30
2002,03,17,14,03,3.20
2002,03,17,14,04,3.20
2002,03,17,14,05,3.30
2002,03,17,14,06,3.30
2002,03,17,14,07,3.30
2002,03,17,14,08,3.30
2002,03,17,14,09,3.30
2002,03,17,14,10,3.30
2002,03,17,14,11,3.30
2002,03,17,14,12,3.30
2002,03,17,14,13,3.30
2002,03,17,14,14,3.40
2002,03,17,14,15,3.40
2002,03,17,14,16,3.30
2002,03,17,14,17,3.30
2002,03,17,14,18,3.30
2002,03,17,14,19,3.20
2002,03,17,14,20,3.20
2002,03,17,14,21,3.30
2002,03,17,14,22,3.30
2002,03,17,14,23,3.30
2002,03,17,14,24,3.30
2002,03,17,14,25,3.20
2002,03,17,14,26,3.10
2002,03,17,14,27,3.20
2002,03,17,14,28,3.20
2002,03,17,14,29,3.10
2002,03,17,14,30,3.10
2002,03,17,14,31,3.10
2002,03,17,14,32,3.20
2002,03,17,14,33,3.30
2002,03,17,14,34,3.30
2002,03,17,14,35,3.40
2002,03,17,14,36,3.40
2002,03,17,14,37,3.40
2002,03,17,14,38,3.30
2002,03,17,14,39,3.20
2002,03,17,14,40,3.10
2002,03,17,14,41,3.20
2002,03,17,14,42,3.20
2002,03,17,14,43,3.10
2002,03,17,14,44,3.00
2002,03,17,14,45,3.10
2002,03,17,14,46,3.10
2002,03,17,14,47,3.20
2002,03,17,14,48,3.20
2002,03,17,14,49,3.30
2002,03,17,14,50,3.20
2002,03,17,14,51,3.20
2002,03,17,14,52,3.30
2002,03,17,14,53,3.30
2002,03,17,14,54,3.30
2002,03,17,14,55,3.20
2002,03,17,14,56,3.10
2002,03,17,14,57,3.00
2002,03,17,14,58,3.10
2002,03,17,14,59,3.10
2002,03,17,15,00,3.20
2002,03,17,15,01,3.20
2002,03,17,15,02,3.10
2002,03,17,15,03,3.20
2002,03,17,15,04,3.30
2002,03,17,15,05,3.40
2002,03,17,15,06,3.40
2002,03,17,15,07,3.50
2002,03,17,15,08,3.30
2002,03,17,15,09,3.30
2002,03,17,15,10,3.20
2002,03,17,15,11,3.30
2002,03,17,15,12,3.40
2002,03,17,15,13,3.30
2002,03,17,15,14,3.30
2002,03,17,15,15,3.20
2002,03,17,15,16,3.30
2002,03,17,15,17,3.30
2002,03,17,15,18,3.20
2002,03,17,15,19,3.10
2002,03,17,15,20,3.10
2002,03,17,15,21,3.20
2002,03,17,15,22,3.30
2002,03,17,15,23,3.40
2002,03,17,15,24,3.50
2002,03,17,15,25,3.50
2002,03,17,15,26,3.40
2002,03,17,15,27,3.40
2002,03,17,15,28,3.50
2002,03,17,15,29,3.60
2002,03,17,15,30,3.60
2002,03,17,15,31,3.60
2002,03,17,15,32,3.60
2002,03,17,15,33,3.60
2002,03,17,15,34,3.60
2002,03,17,15,35,3.60
2002,03,17,15,36,3.70
2002,03,17,15,37,3.80
2002,03,17,15,38,3.80
2002,03,17,15,39,3.80
2002,03,17,15,40,3.70
2002,03,17,15,41,3.80
2002,03,17,15,42,3.90
2002,03,17,15,43,4.00
2002,03,17,15,44,4.10
2002,03,17,15,45,4.10
2002,03,17,15,46,4.00
2002,03,17,15,47,3.90
2002,03,17,15,48,3.80
2002,03,17,15,49,3.80
2002,03,17,15,50,3.70
2002,03,17,15,51,3.60
2002,03,17,15,52,3.60
2002,03,17,15,53,3.60
2002,03,17,15,54,3.50
2002,03,17,15,55,3.50
2002,03,17,15,56,3.50
2002,03,17,15,57,3.60
2002,03,17,15,58,3.70
2002,03,17,15,59,3.70
2002,03,17,16,00,3.70
2002,03,17,16,01,3.70
2002,03,17,16,02,3.70
2002,03,17,16,03,3.70
2002,03,17,16,04,3.80
2002,03,17,16,05,3.80
2002,03,17,16,06,3.80
2002,03,17,16,07,3.80
2002,03,17,16,08,3.80
2002,03,17,16,09,3.70
2002,03,17,16,10,3.60
2002,03,17,16,11,3.60
2002,03,17,16,12,3.60
2002,03,17,16,13,3.70
2002,03,17,16,14,3.80
2002,03,17,16,15,3.80
2002,03,17,16,16,3.80
2002,03,17,16,17,3.80
2002,03,17,16,18,3.80
2002,03,17,16,19,3.70
2002,03,17,16,20,3.80
2002,03,17,16,21,3.80
2002,03,17,16,22,3.80
2002,03,17,16,23,3.80
2002,03,17,16,24,3.80
2002,03,17,16,25,3.80
2002,03,17,16,26,3.80
2002,03,17,16,27,3.80
2002,03,17,16,28,3.80
2002,03,17,16,29,3.70
2002,03,17,16,30,3.70
2002,03,17,16,31,3.70
2002,03,17,16,32,3.70
2002,03,17,16,33,3.70
2002,03,17,16,34,3.60
2002,03,17,16,35,3.60
2002,03,17,16,36,3.70
2002,03,17,16,37,3.60
2002,03,17,16,38,3.60
2002,03,17,16,39,3.60
2002,03,17,16,40,3.60
2002,03,17,16,41,3.70
2002,03,17,16,42,3.70
2002,03,17,16,43,3.80
2002,03,17,16,44,3.80
2002,03,17,16,45,3.80
2002,03,17,16,46,3.80
2002,03,17,16,47,3.80
2002,03,17,16,48,3.80
2002,03,17,16,49,3.80
2002,03,17,16,50,3.80
2002,03,17,16,51,3.80
2002,03,17,16,52,3.80
2002,03,17,16,53,3.80
2002,03,17,16,54,3.80
2002,03,17,16,55,3.80
2002,03,17,16,56,3.70
2002,03,17,16,57,3.60
2002,03,17,16,58,3.60
2002,03,17,16,59,3.60
2002,03,17,17,00,3.50
2002,03,17,17,01,3.40
2002,03,17,17,02,3.40
2002,03,17,17,03,3.50
2002,03,17,17,04,3.50
2002,03,17,17,05,3.50
2002,03,17,17,06,3.50
2002,03,17,17,07,3.50
2002,03,17,17,08,3.50
2002,03,17,17,09,3.50
2002,03,17,17,10,3.50
2002,03,17,17,11,3.50
2002,03,17,17,12,3.50
2002,03,17,17,13,3.50
2002,03,17,17,14,3.50
2002,03,17,17,15,3.60
2002,03,17,17,16,3.60
2002,03,17,17,17,3.60
2002,03,17,17,18,3.60
2002,03,17,17,19,3.50
2002,03,17,17,20,3.50
2002,03,17,17,21,3.40
2002,03,17,17,22,3.40
2002,03,17,17,23,3.40
2002,03,17,17,24,3.50
2002,03,17,17,25,3.50
2002,03,17,17,26,3.50
2002,03,17,17,27,3.50
2002,03,17,17,28,3.40
2002,03,17,17,29,3.30
2002,03,17,17,30,3.30
2002,03,17,17,31,3.30
2002,03,17,17,32,3.30
2002,03,17,17,33,3.30
2002,03,17,17,34,3.30
2002,03,17,17,35,3.30
2002,03,17,17,36,3.30
2002,03,17,17,37,3.30
2002,03,17,17,38,3.20
2002,03,17,17,39,3.20
2002,03,17,17,40,3.20
2002,03,17,17,41,3.20
2002,03,17,17,42,3.20
2002,03,17,17,43,3.20
2002,03,17,17,44,3.10
2002,03,17,17,45,3.10
2002,03,17,17,46,3.10
2002,03,17,17,47,3.10
2002,03,17,17,48,3.10
2002,03,17,17,49,3.00
2002,03,17,17,50,2.90
2002,03,17,17,51,2.90
2002,03,17,17,52,2.90
2002,03,17,17,53,2.90
2002,03,17,17,54,2.90
2002,03,17,17,55,2.90
2002,03,17,17,56,2.90
2002,03,17,17,57,2.90
2002,03,17,17,58,2.90
2002,03,17,17,59,2.90
2002,03,17,18,00,2.90
2002,03,17,18,01,2.90
2002,03,17,18,02,2.90
2002,03,17,18,03,2.90
2002,03,17,18,04,2.90
2002,03,17,18,05,2.90
2002,03,17,18,06,2.90